Location: Dumbr?vi?a
(45.8833°N, 22.7000°E)
Time: 07:18:44
(UTC+00:00)

Cosmos 2333 Rocket - Pass Details

Date: 03 March 2021
Orbit: 837 x 864 km, 70.8° (Epoch: 11 April)

Event Time Altitude Azimuth Distance (km) Brightness Sun altitude
Rises 18:47:25 0° 211° (SSW) 3,388 5.5 -26.4°
Reaches altitude 10° 18:49:51 10° 214° (SSW) 2,461 4.8 -26.7°
Maximum altitude 18:55:30 72° 298° (WNW) 897 2.4 -27.7°
Drops below altitude 10° 19:01:14 10° 23° (NNE) 2,495 4.6 -28.6°
Sets 19:03:43 0° 26° (NNE) 3,439 5.3 -29.0°
